{"data":{"norad_id":56003,"epoch":"2026-09-18T16:36:43.357536Z","epoch_age_seconds":262302,"freshness":"STALE","line1":"1 56003U 23042T   26261.69216849  .00001959  00000+0  80687-4 0  9993","line2":"2 56003  43.0022  49.8840 0002279 259.9246 100.1349 15.27581038192388","mean_motion":15.27581038,"eccentricity":0.0002279,"inclination_deg":43.0022,"raan_deg":49.884,"arg_perigee_deg":259.9246,"mean_anomaly_deg":100.1349,"bstar":8.0687e-5,"rev_number":19238,"period_min":94.26668465886,"perigee_km":481.48232429305,"apogee_km":484.60965149894,"semimajor_km":6861.182987896,"source":"CELESTRAK","updated_at":"2026-09-21T09:00:33.352409Z"}}